Location: Maccacari
(45.1333°N, 11.1333°E)
Time: 15:33:00
(UTC+00:00)

SR - Pass Details

Date: 19 June 2021
Orbit: 577 x 878 km, 66.7° (Epoch: 24 July)

Event Time Altitude Azimuth Distance (km) Brightness Sun altitude
Rises 01:07:02 0° 324° (NW) 3,294 ? -17.0°
Reaches altitude 10° 01:09:36 10° 320° (NW) 2,314 ? -16.8°
Maximum altitude 01:14:43 54° 244° (WSW) 877 ? -16.4°
Enters shadow 01:17:38 22° 176° (S) 1,476 ? -16.1°
